WA6GRA Weather Reports


Display with metric or nautical units.
time (UTC)temp
F
wind
direction
speed
MPH
gust
MPH
rain 1hr
in
rain 24hr
in
rain mn
in
humidity
%
barometer
mb
20260506090415 55 347 1.0 1.0 0.00 0.00 0.00 83 1017.9
20260506085414 55 352 2.0 2.0 0.00 0.00 0.00 81 1017.9
20260506084413 55 329 1.0 1.0 0.00 0.00 0.00 81 1018.1
20260506083413 55 331 2.0 2.0 0.00 0.00 0.00 83 1017.9
20260506082413 54 341 2.0 2.0 0.00 0.00 0.00 85 1017.8
20260506081413 54 347 0.0 0.0 0.00 0.00 0.00 85 1017.7
20260506080412 55 347 0.0 0.0 0.00 0.00 0.00 84 1017.9
20260506073402 55 349 0.0 0.0 0.00 0.00 0.00 83 1017.8
20260506072402 55 349 1.0 1.0 0.00 0.00 0.00 82 1017.6
20260506071358 56 348 1.0 1.0 0.00 0.00 0.00 81 1017.5
20260506070357 56 355 1.0 2.0 0.00 0.00 0.00 81 1017.4
20260506062340 57 355 1.0 1.0 0.00 0.00 0.00 79 1016.9
20260506061339 58 355 1.0 1.0 0.00 0.00 0.00 77 1016.9
20260506060335 59 349 2.0 2.0 0.00 0.00 0.00 75 1017.0
20260506051324 58 1 1.0 1.0 0.00 0.00 0.00 75 1016.2
20260506050319 59 353 2.0 2.0 0.00 0.00 0.00 75 1016.4
20260506044313 60 343 0.0 1.0 0.00 0.00 0.00 70 1016.1
20260506043313 61 337 1.0 2.0 0.00 0.00 0.00 68 1015.8
20260506042310 61 332 0.0 0.0 0.00 0.00 0.00 66 1015.7
20260506041311 62 332 1.0 1.0 0.00 0.00 0.00 65 1015.6
20260506040305 62 332 2.0 2.0 0.00 0.00 0.00 64 1015.4
20260506035306 62 324 1.0 1.0 0.00 0.00 0.00 64 1015.4
20260506034259 63 306 3.0 5.0 0.00 0.00 0.00 63 1015.4
20260506033259 63 325 2.0 2.0 0.00 0.00 0.00 62 1015.3
20260506032258 64 336 3.0 3.0 0.00 0.00 0.00 60 1015.2
20260506031258 64 325 3.0 3.0 0.00 0.00 0.00 60 1015.1
20260506030254 65 335 3.0 5.0 0.00 0.00 0.00 58 1014.9
20260506025253 66 349 4.0 5.0 0.00 0.00 0.00 57 1014.7
20260506024252 66 334 3.0 3.0 0.00 0.00 0.00 56 1014.7
20260506023251 66 353 2.0 2.0 0.00 0.00 0.00 55 1014.6
20260506022246 67 343 4.0 5.0 0.00 0.00 0.00 54 1014.3
20260506021246 68 309 2.0 2.0 0.00 0.00 0.00 52 1014.4
20260506020246 68 342 3.0 3.0 0.00 0.00 0.00 51 1014.3
20260506015247 67 336 2.0 3.0 0.00 0.00 0.00 52 1014.2
20260506014246 67 346 4.0 5.0 0.00 0.00 0.00 51 1014.4
20260506013246 67 338 3.0 3.0 0.00 0.00 0.00 51 1014.1
20260506012244 67 334 3.0 3.0 0.00 0.00 0.00 51 1014.0
20260506011244 68 352 5.0 7.0 0.00 0.00 0.00 49 1013.9
20260506010239 69 14 2.0 2.0 0.00 0.00 0.00 48 1013.8
20260506005239 67 21 1.0 1.0 0.00 0.00 0.00 50 1014.1
20260506004238 68 12 3.0 5.0 0.00 0.00 0.00 50 1014.2
20260506003237 68 9 2.0 2.0 0.00 0.00 0.00 49 1013.9
20260506002235 68 43 3.0 5.0 0.00 0.00 0.00 49 1014.0
20260506001235 69 351 4.0 6.0 0.00 0.00 0.00 48 1014.0
20260506000229 69 334 2.0 3.0 0.00 0.00 0.00 48 1014.0
20260505235229 69 8 2.0 5.0 0.00 0.00 0.00 47 1014.1
20260505234229 69 83 4.0 6.0 0.00 0.00 0.00 46 1014.1
20260505233230 70 299 2.0 2.0 0.00 0.00 0.00 45 1014.3
20260505232230 69 307 2.0 2.0 0.00 0.00 0.00 46 1014.4
20260505231225 69 40 2.0 2.0 0.00 0.00 0.00 48 1014.3
20260505230225 69 291 3.0 3.0 0.00 0.00 0.00 47 1014.4
20260505225225 69 273 3.0 3.0 0.00 0.00 0.00 45 1014.3
20260505224224 70 253 10.0 11.0 0.00 0.00 0.00 45 1014.5
20260505223223 70 289 5.0 7.0 0.00 0.00 0.00 46 1014.5
20260505222221 70 228 7.0 8.0 0.00 0.00 0.00 46 1014.5
20260505221221 69 166 5.0 6.0 0.00 0.00 0.00 48 1014.4
20260505220216 68 243 6.0 7.0 0.00 0.00 0.00 49 1014.5
20260505215211 69 266 8.0 10.0 0.00 0.00 0.00 48 1014.6
20260505214206 68 273 5.0 6.0 0.00 0.00 0.00 51 1014.6
20260505213200 69 180 5.0 6.0 0.00 0.00 0.00 51 1014.8
20260505212159 68 330 6.0 6.0 0.00 0.00 0.00 50 1014.7
20260505211159 68 270 7.0 9.0 0.00 0.00 0.00 52 1014.8
20260505210159 68 19 6.0 7.0 0.00 0.00 0.00 51 1014.7
20260505205154 67 252 5.0 7.0 0.00 0.00 0.00 54 1015.0
20260505204154 66 326 2.0 2.0 0.00 0.00 0.00 53 1014.8
20260505203154 66 28 1.0 1.0 0.00 0.00 0.00 58 1014.7
20260505202152 67 273 4.0 5.0 0.00 0.00 0.00 58 1015.0
20260505201152 67 274 2.0 3.0 0.00 0.00 0.00 58 1014.9
20260505200152 64 265 6.0 7.0 0.00 0.00 0.00 62 1015.0
20260505195152 64 276 8.0 8.0 0.00 0.00 0.00 62 1015.0
20260505194151 64 348 6.0 7.0 0.00 0.00 0.00 63 1015.2
20260505193150 63 322 6.0 7.0 0.00 0.00 0.00 65 1015.3
20260505192146 62 309 3.0 3.0 0.00 0.00 0.00 69 1015.4
20260505191142 62 297 6.0 8.0 0.00 0.00 0.00 68 1015.3
20260505190138 61 293 5.0 7.0 0.00 0.00 0.00 68 1015.4
20260505185137 60 335 5.0 7.0 0.00 0.00 0.00 70 1015.6
20260505184136 60 310 4.0 5.0 0.00 0.00 0.00 71 1015.5
20260505183131 60 318 5.0 7.0 0.00 0.00 0.00 71 1015.5
20260505182129 61 308 6.0 8.0 0.00 0.00 0.00 69 1015.4
20260505181129 60 305 5.0 8.0 0.00 0.00 0.00 70 1015.4
20260505180129 59 316 4.0 5.0 0.00 0.00 0.00 73 1015.2
20260505175127 59 326 4.0 6.0 0.00 0.00 0.00 73 1015.2
20260505174126 60 340 5.0 7.0 0.00 0.00 0.00 74 1015.3
20260505173125 59 329 4.0 6.0 0.00 0.00 0.00 75 1014.9
20260505172120 59 312 4.0 6.0 0.00 0.00 0.00 77 1015.1
20260505171118 57 310 5.0 7.0 0.00 0.00 0.00 80 1014.9
20260505170117 57 338 6.0 8.0 0.00 0.00 0.00 83 1015.1
20260505165114 56 291 3.0 3.0 0.00 0.00 0.00 85 1014.9
20260505164113 56 295 3.0 3.0 0.00 0.00 0.00 86 1014.9
20260505163108 55 285 5.0 6.0 0.00 0.00 0.00 85 1015.0
20260505162103 55 294 1.0 2.0 0.00 0.00 0.00 86 1014.9
20260505161103 55 308 3.0 5.0 0.00 0.00 0.00 87 1014.8
20260505160104 55 328 2.0 2.0 0.00 0.00 0.00 87 1014.6
20260505153100 55 317 5.0 6.0 0.00 0.00 0.00 88 1014.6
20260505152058 55 286 4.0 6.0 0.00 0.00 0.00 89 1014.5
20260505151057 54 308 3.0 3.0 0.00 0.00 0.00 89 1014.5
20260505125036 55 277 8.0 9.0 0.00 0.00 0.00 87 1013.2
20260505124034 55 321 2.0 2.0 0.00 0.00 0.00 88 1013.3
20260505123032 55 320 4.0 5.0 0.00 0.00 0.00 88 1013.4
20260505122032 55 331 3.0 5.0 0.00 0.00 0.00 88 1013.4
20260505121031 55 301 6.0 8.0 0.00 0.00 0.00 87 1013.1
20260505120029 55 326 6.0 8.0 0.00 0.00 0.00 87 1013.2
20260505115028 55 310 2.0 2.0 0.00 0.00 0.00 86 1013.2
20260505114027 55 323 2.0 2.0 0.00 0.00 0.00 86 1013.1
20260505113026 55 326 1.0 1.0 0.00 0.00 0.00 85 1013.4
20260505112020 55 326 1.0 1.0 0.00 0.00 0.00 85 1013.1
20260505111016 55 326 2.0 2.0 0.00 0.00 0.00 85 1013.0
20260505102009 55 310 2.0 2.0 0.00 0.00 0.00 85 1013.3
20260505101009 55 303 1.0 1.0 0.00 0.00 0.00 85 1013.3
20260505100009 55 303 3.0 3.0 0.00 0.00 0.00 85 1013.3
20260505095008 55 288 3.0 5.0 0.00 0.00 0.00 84 1013.4
20260505094007 56 288 2.0 3.0 0.00 0.00 0.00 83 1013.4
20260505093006 56 290 2.0 2.0 0.00 0.00 0.00 82 1013.3
20260505092001 56 296 3.0 3.0 0.00 0.00 0.00 82 1013.3